EW3670 Weather Reports


time (UTC)temp
C
wind
direction
speed
KPH
gust
KPH
rain 1hr
cm
rain 24hr
cm
rain mn
cm
humidity
%
barometer
mb
20260510061555 11 272 1.6 11.3 0.00 0.13 0.00 87 1003.4
20260510061051 11 0 1.6 11.3 0.00 0.13 0.00 87 1003.3
20260510060551 11 281 1.6 12.9 0.00 0.13 0.00 87 1003.3
20260510060056 11 266 1.6 12.9 0.00 0.13 0.00 87 1003.3
20260510055551 11 259 3.2 12.9 0.00 0.13 0.00 87 1003.3
20260510055051 11 254 3.2 11.3 0.00 0.13 0.00 87 1003.3
20260510054552 11 254 3.2 16.1 0.00 0.13 0.00 88 1003.3
20260510054051 11 227 6.4 16.1 0.00 0.13 0.00 88 1003.2
20260510053550 11 248 4.8 14.5 0.00 0.13 0.00 88 1003.1
20260510053101 11 263 1.6 12.9 0.00 0.13 0.00 88 1003.1
20260510052552 11 265 1.6 12.9 0.00 0.13 0.00 88 1003.0
20260510052051 11 232 3.2 12.9 0.00 0.13 0.00 88 1003.2
20260510051557 11 232 1.6 11.3 0.00 0.13 0.00 88 1003.1
20260510051052 11 260 1.6 11.3 0.00 0.13 0.00 88 1003.0
20260510050555 11 269 1.6 11.3 0.00 0.13 0.00 88 1003.0
20260510050056 11 271 3.2 9.7 0.00 0.13 0.00 88 1003.0
20260510045552 12 236 1.6 9.7 0.00 0.13 0.00 87 1003.0
20260510045141 12 0 1.6 9.7 0.00 0.13 0.00 87 1002.9
20260510044553 12 0 1.6 9.7 0.00 0.13 0.00 87 1002.8
20260510044051 12 232 1.6 12.9 0.00 0.13 0.00 87 1002.6
20260510043551 12 246 1.6 12.9 0.00 0.13 0.00 87 1002.5
20260510043102 12 0 1.6 9.7 0.00 0.13 0.00 87 1002.4
20260510042552 12 0 1.6 9.7 0.00 0.13 0.00 87 1002.2
20260510042054 12 266 1.6 9.7 0.00 0.13 0.00 87 1002.1
20260510041555 12 0 1.6 9.7 0.00 0.13 0.00 87 1002.2
20260510041051 12 276 1.6 12.9 0.00 0.13 0.00 86 1001.9
20260510040551 12 239 1.6 12.9 0.00 0.13 0.00 86 1001.8
20260510040056 12 248 3.2 11.3 0.00 0.13 0.00 86 1002.0
20260510035552 12 248 3.2 11.3 0.00 0.13 0.13 86 1001.9
20260510035055 12 236 3.2 11.3 0.00 0.13 0.13 86 1001.9
20260510034555 12 0 3.2 11.3 0.00 0.13 0.13 85 1002.0
20260510034051 12 241 0.0 11.3 0.05 0.13 0.13 85 1002.1
20260510033550 12 281 1.6 8.0 0.08 0.13 0.13 85 1002.1
20260510033101 12 0 1.6 9.7 0.13 0.13 0.13 85 1002.1
20260510032550 12 281 1.6 9.7 0.13 0.13 0.13 84 1002.1
20260510032051 12 0 1.6 11.3 0.13 0.13 0.13 84 1002.0
20260510031552 12 239 1.6 14.5 0.13 0.13 0.13 84 1002.1
20260510031051 12 242 3.2 14.5 0.13 0.13 0.13 83 1001.9
20260510030551 12 296 3.2 12.9 0.13 0.13 0.13 82 1002.1
20260510030103 12 236 4.8 9.7 0.10 0.10 0.10 81 1001.9
20260510025551 13 225 3.2 8.0 0.10 0.10 0.10 79 1001.8
20260510025051 13 224 3.2 11.3 0.10 0.10 0.10 78 1001.9
20260510024557 13 213 3.2 16.1 0.10 0.10 0.10 76 1002.1
20260510024051 13 213 6.4 16.1 0.08 0.08 0.08 75 1002.1
20260510023552 14 237 3.2 12.9 0.00 0.00 0.00 74 1002.1
20260510023053 14 244 3.2 9.7 0.00 0.00 0.00 72 1001.8
20260510022551 14 224 4.8 11.3 0.00 0.00 0.00 71 1001.6
20260510022051 15 0 3.2 12.9 0.00 0.00 0.00 69 1001.5
20260510021552 15 234 3.2 16.1 0.00 0.00 0.00 67 1001.2
20260510021050 15 220 4.8 16.1 0.00 0.00 0.00 66 1001.2
20260510020551 15 85 3.2 25.7 0.00 0.00 0.00 65 1001.2
20260510020050 15 251 4.8 25.7 0.00 0.00 0.00 65 1001.3
20260510015552 15 220 4.8 17.7 0.00 0.00 0.00 64 1001.2
20260510015051 15 148 3.2 14.5 0.00 0.00 0.00 64 1001.4
20260510014556 15 148 4.8 14.5 0.00 0.00 0.00 64 1001.6
20260510014052 15 204 3.2 14.5 0.00 0.00 0.00 63 1001.7
20260510013551 15 234 3.2 14.5 0.00 0.00 0.00 63 1001.8
20260510013053 15 197 1.6 9.7 0.00 0.00 0.00 62 1001.8
20260510012551 15 166 3.2 14.5 0.00 0.00 0.00 62 1001.8
20260510012051 16 175 3.2 14.5 0.00 0.00 0.00 61 1001.7
20260510011552 16 0 1.6 16.1 0.00 0.00 0.00 61 1001.8
20260510011052 16 176 3.2 16.1 0.00 0.00 0.00 60 1001.8
20260510010551 16 156 1.6 14.5 0.00 0.00 0.00 60 1001.8
20260510010050 16 0 1.6 14.5 0.00 0.00 0.00 60 1001.8
20260510005552 16 156 4.8 14.5 0.00 0.00 0.00 59 1001.8
20260510005051 16 164 1.6 14.5 0.00 0.00 0.00 59 1001.9
20260510004553 16 157 0.0 9.7 0.00 0.00 0.00 58 1001.8
20260510004052 16 0 1.6 11.3 0.00 0.00 0.00 58 1001.8
20260510003552 16 193 0.0 11.3 0.00 0.00 0.00 58 1001.8
20260510003055 16 169 1.6 9.7 0.00 0.00 0.00 57 1001.8
20260510002551 16 161 0.0 16.1 0.00 0.00 0.00 57 1001.9
20260510002051 16 174 1.6 16.1 0.00 0.00 0.00 56 1002.0
20260510001552 16 216 1.6 9.7 0.00 0.00 0.00 56 1002.1
20260510001051 16 195 3.2 9.7 0.00 0.00 0.00 55 1002.1
20260510000554 16 0 3.2 8.0 0.00 0.00 0.00 55 1002.2
20260510000100 16 0 3.2 9.7 0.00 0.00 0.00 55 1002.4
20260509235553 17 222 1.6 9.7 0.00 0.00 0.00 55 1002.5
20260509235051 17 220 3.2 11.3 0.00 0.00 0.00 55 1002.4
20260509234552 17 219 3.2 11.3 0.00 0.00 0.00 55 1002.5
20260509234051 17 232 1.6 12.9 0.00 0.00 0.00 55 1002.6
20260509233550 17 233 3.2 16.1 0.00 0.00 0.00 54 1002.7
20260509233057 17 231 8.0 16.1 0.00 0.00 0.00 53 1002.7
20260509232553 17 228 3.2 17.7 0.00 0.00 0.00 53 1002.7
20260509232052 17 0 3.2 17.7 0.00 0.00 0.00 53 1002.7
20260509231552 17 234 4.8 17.7 0.00 0.00 0.00 52 1002.7
20260509231052 17 229 6.4 22.5 0.00 0.00 0.00 51 1002.6
20260509230554 17 247 8.0 22.5 0.00 0.00 0.00 51 1002.6
20260509230056 18 230 6.4 20.9 0.00 0.00 0.00 50 1002.5
20260509225551 18 186 3.2 14.5 0.00 0.00 0.00 47 1002.4
20260509225050 18 216 4.8 16.1 0.00 0.00 0.00 45 1002.3
20260509224552 18 249 6.4 16.1 0.00 0.00 0.00 43 1002.3
20260509224051 18 261 1.6 14.5 0.00 0.00 0.00 43 1002.3
20260509223554 18 234 3.2 17.7 0.00 0.00 0.00 42 1002.2
20260509223056 18 235 3.2 17.7 0.00 0.00 0.00 42 1002.1
20260509222551 18 232 3.2 14.5 0.00 0.00 0.00 42 1002.1
20260509222050 18 236 4.8 11.3 0.00 0.00 0.00 42 1002.2
20260509221553 18 224 1.6 8.0 0.00 0.00 0.00 42 1002.1
20260509221053 18 224 4.8 11.3 0.00 0.00 0.00 42 1002.0
20260509220552 18 256 3.2 11.3 0.00 0.00 0.00 41 1001.9
20260509220052 18 215 4.8 14.5 0.00 0.00 0.00 42 1001.9
20260509215551 18 226 4.8 14.5 0.00 0.00 0.00 41 1002.0
20260509215051 18 145 6.4 11.3 0.00 0.00 0.00 41 1002.2
20260509214610 18 228 3.2 11.3 0.00 0.00 0.00 40 1002.3
20260509214050 19 232 4.8 11.3 0.00 0.00 0.00 39 1002.3
20260509213550 19 186 4.8 19.3 0.00 0.00 0.00 38 1002.3
20260509213051 19 226 4.8 19.3 0.00 0.00 0.00 37 1002.4
20260509212551 19 217 6.4 19.3 0.00 0.00 0.00 37 1002.4
20260509212052 19 185 4.8 19.3 0.00 0.00 0.00 37 1002.5
20260509211550 19 230 4.8 19.3 0.00 0.00 0.00 36 1002.4
20260509211051 19 234 4.8 16.1 0.00 0.00 0.00 36 1002.4
20260509210551 19 211 4.8 20.9 0.00 0.00 0.00 35 1002.4
20260509205550 19 170 4.8 12.9 0.00 0.00 0.00 34 1002.4
20260509205052 19 214 3.2 14.5 0.00 0.00 0.00 34 1002.6
20260509204556 19 0 4.8 17.7 0.00 0.00 0.00 33 1002.4
20260509204052 20 194 4.8 17.7 0.00 0.00 0.00 31 1002.6
20260509203553 20 229 4.8 16.1 0.00 0.00 0.00 30 1002.7
20260509203107 20 221 8.0 17.7 0.00 0.00 0.00 29 1002.6
20260509202552 20 215 4.8 17.7 0.00 0.00 0.00 29 1002.5
20260509202053 20 207 3.2 17.7 0.00 0.00 0.00 29 1002.7
20260509201553 20 225 4.8 14.5 0.00 0.00 0.00 27 1002.8
20260509201053 20 239 4.8 16.1 0.00 0.00 0.00 27 1002.8
20260509200552 20 216 4.8 17.7 0.00 0.00 0.00 27 1002.8
20260509200055 20 215 4.8 17.7 0.00 0.00 0.00 27 1002.8
20260509195552 20 213 4.8 27.4 0.00 0.00 0.00 27 1002.8
20260509195052 20 182 8.0 27.4 0.00 0.00 0.00 27 1002.9
20260509194556 20 225 4.8 19.3 0.00 0.00 0.00 26 1002.9
20260509194051 20 214 4.8 19.3 0.00 0.00 0.00 25 1003.0
20260509193549 20 230 4.8 16.1 0.00 0.00 0.00 26 1003.2
20260509193106 20 194 6.4 25.7 0.00 0.00 0.00 24 1003.1
20260509192553 20 172 6.4 27.4 0.00 0.00 0.00 25 1003.0
20260509192053 20 207 6.4 27.4 0.00 0.00 0.00 25 1003.1
20260509191603 20 197 3.2 30.6 0.00 0.00 0.00 25 1003.2
20260509191053 20 198 11.3 30.6 0.00 0.00 0.00 25 1003.3
20260509190555 20 175 6.4 14.5 0.00 0.00 0.00 25 1003.3
20260509190056 20 184 4.8 16.1 0.00 0.00 0.00 26 1003.4
20260509185551 20 130 6.4 16.1 0.00 0.00 0.00 26 1003.7
20260509185050 20 221 4.8 12.9 0.00 0.00 0.00 25 1003.6
20260509184600 20 230 4.8 16.1 0.00 0.00 0.00 25 1003.8
20260509184050 20 217 6.4 16.1 0.00 0.00 0.00 26 1003.7
20260509183552 20 254 4.8 12.9 0.00 0.00 0.00 25 1003.9
20260509183059 20 229 1.6 14.5 0.00 0.00 0.00 25 1004.1
20260509182555 20 214 4.8 16.1 0.00 0.00 0.00 26 1004.4
20260509182051 20 203 3.2 16.1 0.00 0.00 0.00 25 1004.3
20260509181552 20 223 6.4 14.5 0.00 0.00 0.00 26 1004.4
20260509181052 20 215 4.8 14.5 0.00 0.00 0.00 24 1004.4
20260509180552 20 226 1.6 12.9 0.00 0.00 0.00 25 1004.4
20260509180056 20 235 6.4 12.9 0.00 0.00 0.00 25 1004.5
20260509175551 20 155 4.8 12.9 0.00 0.00 0.00 26 1004.5
20260509175051 20 195 4.8 17.7 0.00 0.00 0.00 26 1004.7
20260509174619 20 180 3.2 19.3 0.00 0.00 0.00 26 1004.7
20260509174050 19 156 6.4 22.5 0.00 0.00 0.00 26 1004.7
20260509173550 19 240 6.4 22.5 0.00 0.00 0.00 27 1004.6
20260509173056 19 153 4.8 22.5 0.00 0.00 0.00 26 1004.6
20260509172550 18 232 6.4 14.5 0.00 0.00 0.00 25 1004.6
20260509172051 19 203 3.2 14.5 0.00 0.00 0.00 26 1004.6
20260509171553 19 295 3.2 11.3 0.00 0.00 0.00 26 1004.9
20260509171050 19 211 3.2 19.3 0.00 0.00 0.00 26 1005.0
20260509170550 20 139 3.2 19.3 0.00 0.00 0.00 26 1005.1
20260509170051 19 166 4.8 19.3 0.00 0.00 0.00 27 1005.1
20260509165551 18 236 4.8 14.5 0.00 0.00 0.00 27 1005.3
20260509165050 18 231 4.8 12.9 0.00 0.00 0.00 26 1005.4
20260509164553 18 208 3.2 17.7 0.00 0.00 0.00 27 1005.6
20260509164050 18 188 4.8 17.7 0.00 0.00 0.00 27 1005.7
20260509163551 18 162 4.8 16.1 0.00 0.00 0.00 27 1005.7
20260509163055 18 254 4.8 16.1 0.00 0.00 0.00 27 1005.7
20260509162553 18 202 3.2 16.1 0.00 0.00 0.00 27 1005.8
20260509162052 18 136 3.2 17.7 0.00 0.00 0.00 27 1005.9
20260509161555 18 294 6.4 19.3 0.00 0.00 0.00 28 1006.0
20260509161055 18 133 6.4 19.3 0.00 0.00 0.00 28 1006.0
20260509160553 18 215 4.8 12.9 0.00 0.00 0.00 30 1006.0
20260509160057 18 171 3.2 17.7 0.00 0.00 0.00 28 1006.1
20260509155556 17 178 4.8 17.7 0.00 0.00 0.00 31 1006.2
20260509155052 17 232 4.8 16.1 0.00 0.00 0.00 31 1006.5
20260509154555 18 249 3.2 16.1 0.00 0.00 0.00 30 1006.7
20260509154052 17 240 4.8 16.1 0.00 0.00 0.00 32 1006.8
20260509153552 17 237 3.2 12.9 0.00 0.00 0.00 32 1006.9
20260509153105 17 238 4.8 12.9 0.00 0.00 0.00 33 1007.0
20260509152553 17 243 1.6 17.7 0.00 0.00 0.00 36 1007.1
20260509152050 17 266 1.6 17.7 0.00 0.00 0.00 36 1007.1
20260509151555 17 0 3.2 17.7 0.00 0.00 0.00 37 1007.2
20260509151056 16 267 4.8 14.5 0.00 0.00 0.00 38 1007.5
20260509150551 16 258 0.0 11.3 0.00 0.00 0.00 40 1007.6
20260509150052 16 264 0.0 9.7 0.00 0.00 0.00 40 1007.7
20260509145551 16 180 1.6 9.7 0.00 0.00 0.00 42 1007.7
20260509145053 15 179 1.6 9.7 0.00 0.00 0.00 42 1007.8
20260509144553 15 0 3.2 8.0 0.00 0.00 0.00 43 1007.8
20260509144050 15 233 1.6 11.3 0.00 0.00 0.00 43 1007.8
20260509143552 15 232 3.2 11.3 0.00 0.00 0.00 43 1008.0
20260509143052 15 237 1.6 9.7 0.00 0.00 0.00 44 1008.0
20260509142553 15 0 1.6 11.3 0.00 0.00 0.00 42 1008.0
20260509142052 14 168 0.0 11.3 0.00 0.00 0.00 43 1008.1
20260509141554 14 163 1.6 11.3 0.00 0.00 0.00 43 1008.0
20260509141053 14 128 1.6 11.3 0.00 0.00 0.00 44 1008.1
20260509140552 13 0 1.6 11.3 0.00 0.00 0.00 44 1008.1
20260509140052 13 163 0.0 11.3 0.00 0.00 0.00 45 1008.1
20260509135553 13 164 1.6 11.3 0.00 0.00 0.00 45 1008.2
20260509135053 12 0 0.0 4.8 0.00 0.00 0.00 46 1008.1
20260509134554 12 145 0.0 11.3 0.00 0.00 0.00 47 1008.2
20260509134050 11 0 0.0 11.3 0.00 0.00 0.00 49 1008.3
20260509133553 11 132 1.6 11.3 0.00 0.00 0.00 47 1008.3
20260509133054 11 0 0.0 6.4 0.00 0.00 0.00 48 1008.3
20260509132551 11 0 0.0 6.4 0.00 0.00 0.00 49 1008.4
20260509132051 11 142 1.6 4.8 0.00 0.00 0.00 51 1008.4
20260509131550 11 148 0.0 8.0 0.00 0.00 0.00 50 1008.6
20260509131050 10 0 0.0 8.0 0.00 0.00 0.00 53 1008.6
20260509130550 10 0 0.0 6.4 0.00 0.00 0.00 53 1008.7
20260509130104 10 0 0.0 6.4 0.00 0.00 0.00 53 1008.7
20260509125553 10 144 0.0 6.4 0.00 0.00 0.00 54 1008.7
20260509125051 9 144 1.6 9.7 0.00 0.00 0.00 55 1008.9
20260509124555 8 158 1.6 9.7 0.00 0.00 0.00 55 1008.9
20260509124053 8 0 1.6 8.0 0.00 0.00 0.00 55 1008.9
20260509123551 8 140 0.0 6.4 0.00 0.00 0.00 56 1009.0
20260509123058 8 140 0.0 6.4 0.00 0.00 0.00 57 1008.9
20260509122552 8 140 1.6 6.4 0.00 0.00 0.00 57 1009.0
20260509122052 7 140 1.6 6.4 0.00 0.00 0.00 58 1009.0
20260509121614 7 135 1.6 6.4 0.00 0.00 0.00 59 1009.0
20260509121050 7 134 0.0 6.4 0.00 0.00 0.00 59 1008.9
20260509120551 7 134 0.0 4.8 0.00 0.00 0.00 61 1008.9
20260509120055 7 0 0.0 4.8 0.00 0.00 0.00 61 1008.9
20260509115550 7 126 1.6 4.8 0.00 0.00 0.00 60 1008.9
20260509115052 7 0 0.0 4.8 0.00 0.00 0.00 60 1009.0
20260509114600 7 0 0.0 6.4 0.00 0.00 0.00 61 1008.9
20260509114052 7 0 0.0 6.4 0.00 0.00 0.00 61 1008.9
20260509113551 7 126 0.0 4.8 0.00 0.00 0.00 62 1008.8
20260509113101 7 0 0.0 4.8 0.00 0.00 0.00 63 1008.8
20260509112550 6 127 0.0 6.4 0.00 0.00 0.00 63 1008.7
20260509112051 6 127 0.0 9.7 0.00 0.00 0.00 65 1008.8
20260509111555 6 0 1.6 9.7 0.00 0.00 0.00 65 1008.7
20260509111053 6 88 0.0 4.8 0.00 0.00 0.00 66 1008.8
20260509110552 5 87 0.0 4.8 0.00 0.00 0.00 68 1008.8
20260509110110 5 82 0.0 6.4 0.00 0.00 0.00 69 1008.8
20260509105550 5 0 0.0 6.4 0.00 0.00 0.00 69 1008.7
20260509105050 5 69 0.0 6.4 0.00 0.00 0.00 70 1008.7
20260509104559 5 0 0.0 6.4 0.00 0.00 0.00 71 1008.6
20260509104051 5 148 0.0 6.4 0.00 0.00 0.00 71 1008.6
20260509103551 5 0 0.0 3.2 0.00 0.00 0.00 71 1008.5
20260509103104 5 0 0.0 4.8 0.00 0.00 0.00 71 1008.5
20260509102550 5 172 0.0 4.8 0.00 0.00 0.00 71 1008.6
20260509102051 5 172 0.0 4.8 0.00 0.00 0.00 71 1008.6
20260509101613 5 0 0.0 4.8 0.00 0.00 0.00 71 1008.6
20260509101050 5 0 1.6 4.8 0.00 0.00 0.00 70 1008.5
20260509100550 5 0 0.0 4.8 0.00 0.00 0.00 70 1008.3
20260509100051 5 173 0.0 3.2 0.00 0.00 0.00 70 1008.3
20260509095549 5 0 0.0 3.2 0.00 0.00 0.00 70 1008.3
20260509095051 5 173 0.0 4.8 0.00 0.00 0.00 70 1008.3
20260509094604 5 0 0.0 4.8 0.00 0.00 0.00 70 1008.3
20260509094053 5 0 0.0 4.8 0.00 0.00 0.00 70 1008.3
20260509093551 5 0 0.0 3.2 0.00 0.00 0.00 70 1008.3
20260509093054 5 0 0.0 6.4 0.00 0.00 0.00 70 1008.2
20260509092551 5 0 0.0 6.4 0.00 0.00 0.00 70 1008.3
20260509092050 5 0 1.6 6.4 0.00 0.00 0.00 70 1008.2
20260509091602 5 0 0.0 3.2 0.00 0.00 0.00 69 1008.2
20260509091050 5 0 0.0 3.2 0.00 0.00 0.00 69 1008.4
20260509090553 5 0 0.0 1.6 0.00 0.00 0.00 69 1008.4
20260509090100 5 0 0.0 1.6 0.00 0.00 0.00 69 1008.4
20260509085550 5 0 0.0 3.2 0.00 0.00 0.00 69 1008.3
20260509085050 5 0 0.0 3.2 0.00 0.00 0.00 69 1008.3
20260509084559 5 0 0.0 1.6 0.00 0.00 0.00 68 1008.3
20260509084050 5 0 0.0 0.0 0.00 0.00 0.00 68 1008.3
20260509083550 5 0 0.0 1.6 0.00 0.00 0.00 68 1008.3
20260509083102 5 0 0.0 4.8 0.00 0.00 0.00 68 1008.4
20260509082551 5 0 0.0 4.8 0.00 0.00 0.00 68 1008.4
20260509082050 5 0 0.0 4.8 0.00 0.00 0.00 68 1008.4
20260509081558 5 0 0.0 3.2 0.00 0.00 0.00 68 1008.4
20260509081051 5 0 0.0 3.2 0.00 0.00 0.00 68 1008.5
20260509080550 5 0 0.0 3.2 0.00 0.00 0.00 68 1008.5
20260509075550 5 0 0.0 1.6 0.00 0.00 0.00 68 1008.5
20260509075053 5 0 0.0 1.6 0.00 0.00 0.00 68 1008.3
20260509074556 6 0 0.0 1.6 0.00 0.00 0.00 68 1008.5
20260509074051 6 260 0.0 1.6 0.00 0.00 0.00 68 1008.5
20260509073551 6 0 0.0 1.6 0.00 0.00 0.00 68 1008.5
20260509073100 6 260 0.0 1.6 0.00 0.00 0.00 67 1008.5
20260509072551 6 0 0.0 1.6 0.00 0.00 0.00 67 1008.4
20260509072052 6 0 0.0 1.6 0.00 0.00 0.00 67 1008.5
20260509071604 6 0 0.0 3.2 0.00 0.00 0.00 67 1008.5
20260509071050 6 0 0.0 3.2 0.00 0.00 0.00 66 1008.5
20260509070552 6 0 0.0 1.6 0.00 0.00 0.00 66 1008.6
20260509070057 6 0 0.0 3.2 0.00 0.00 0.00 66 1008.5
20260509065554 6 0 0.0 3.2 0.00 0.00 0.00 66 1008.5
20260509065051 6 0 0.0 3.2 0.00 0.00 0.00 65 1008.6
20260509064554 6 0 0.0 3.2 0.00 0.00 0.00 65 1008.6
20260509064051 6 0 0.0 4.8 0.00 0.00 0.00 65 1008.6
20260509063554 6 0 0.0 4.8 0.00 0.00 0.00 65 1008.5
20260509063100 6 0 0.0 4.8 0.00 0.00 0.00 64 1008.6
20260509062554 7 0 0.0 4.8 0.00 0.00 0.00 64 1008.6
20260509062050 7 0 0.0 3.2 0.00 0.00 0.00 64 1008.6